Regional Weather Roundup
Issued by NWS Charleston, SC

Current Version | Previous Version | Text Only | Print | Product List | Glossary Off
Versions: 1 2 3 4 5 6 7 8 9 10 11 12 13 14 15 16 17 18 19 20 21 22 23 24 25 26 27 28 29 30 31 32 33 34 35 36 37 38 39 40 41 42 43 44 45 46 47 48 49 50

495
ASUS42 KCHS 230712
RWRCHS

Regional Weather Roundup
National Weather Service Charleston SC
300 AM EDT MON APR 23 2018

NOTE: "fair" indicates few or no clouds below 12,000 feet with no
significant weather and/or obstructions to visibility.

Not all stations are quality controlled. Use data with caution,
especially dewpoint observations.

SCZ027-030-031-034>040-042>050-230800-
...Southeast South Carolina...

CITY           SKY/WX    TMP DP  RH WIND       PRES   REMARKS
N Charleston   LGT RAIN  66  58  75 SE12G22   30.17F
Waterfront Prk   N/A     66  61  84 E14       30.02F
Mount Pleasant DRIZZLE   66  59  77 E7        30.18S
Johns Island   LGT RAIN  64  61  88 E12G18    30.17S
Pinopolis      NOT AVBL
Moncks Corner  DRIZZLE   63  50  63 E5        30.18F
Summerville    CLOUDY    64  54  68 E6        30.18S
Beaufort MCAS  LGT RAIN  65  62  90 E12       30.12F
Beaufort Arpt  LGT RAIN  63  59  88 E8G18     30.12F
Hilton Head Is FAIR      64  61  88 E9G17     30.13F
Walterboro     LGT RAIN  61  59  94 E8        30.15F
Allendale      DRIZZLE   61  57  88 CALM      30.13F

...Southern Midlands and Pee Dee...

CITY           SKY/WX    TMP DP  RH WIND       PRES   REMARKS
Georgetown     FAIR      63  59  88 E8        30.21F
Kingstree      FAIR      59  52  77 E7        30.20F
Orangeburg     LGT RAIN  61  52  72 VRB3      30.17S
Barnwell       DRIZZLE   59  55  88 E10       30.14F
Aiken          LGT RAIN  55  55 100 E8        30.18F
Manning        FAIR      55  50  82 E5        30.20S
Columbia       LGT RAIN  59  56  89 E8        30.18S
Sumter         CLOUDY    59  51  77 E6        30.18F
Florence       FAIR      59  52  77 E8        30.22F
Myrtle Beach   FAIR      63  53  70 E14       30.23F
N Myrtle Beach MOCLDY    63  52  67 E10G20    30.21F

$$

GAZ063-065-086>088-099>101-113>116-118-119-134>141-150-230800-
...Southeast Georgia...

CITY           SKY/WX    TMP DP  RH WIND       PRES   REMARKS
Savannah Arpt  LGT RAIN  65  63  93 E16       30.09F
Hunter AAF     FAIR      65  62  88 E12       30.06F
Fort Stewart   CLOUDY    64  63  94 E15G21    30.05F
Statesboro     LGT RAIN  64  58  82 E7        30.09F
Sylvania       CLOUDY    63  63 100 SE7       30.11F
Claxton        CLOUDY    65  63  91 E10G16    30.08F

...CSRA, Central and far Southeast Georgia...

CITY           SKY/WX    TMP DP  RH WIND       PRES   REMARKS
Thomson        MOCLDY    58  56  90 S12G20    30.12F
Augusta-Bush   LGT RAIN  59  57  93 E7        30.10F
Augusta-Daniel LGT RAIN  60  56  86 E12G20    30.11F
Swainsboro     CLOUDY    63  61  94 SE14      30.06S
Vidalia        CLOUDY    64  63  94 SE12G20   30.04F
Eastman        LGT RAIN  65  56  73 SE13G22   30.01F
Hazlehurst     RAIN      65  61  85 E15G21    30.00F
Alma           CLOUDY    66  63  90 SE8       30.00F
Waycross       DRIZZLE   66  64  90 SE10G17   30.01F
Jesup          CLOUDY    66  63  88 CALM      30.05F
Baxley         RAIN      63  63 100 E12G18    30.01F
Brunswick      CLOUDY    66  63  88 E14G24    30.06F
Saint Simons   NOT AVBL

$$

SCZ027-028-034-036>038-045-046-048>050-GAZ119-141-230800-
...Lake and Supplemental Coastal Observations...

STATION/POSITION TIME  TEMP    WIND        PRES    WAVE   SWELL
                       AIR SEA DIR/SP/G            HT/PER HT/PER/DIR
                 (UTC) (F)     (DEG/KT/KT) (MB)    (FT/S) (FT/S/D)
Winyah Bay       0545   64     100/ 15     1023.0
Lake Murray      0620   60      90/ 15/ 19 1021.3S
ACE Basin NERRS  0545   67     350/  7       N/A
Fort Pulaski     0642   66 65  120/ 13/ 17 1019.5F
Sapelo Island    0600   66     110/ 10     1019.0

$$

ANZ835-935-AMZ111-154-330-350-352-354-370-450-454-472-230800-
...C-MAN and Buoy Observations...

STATION/POSITION TIME  TEMP    WIND        PRES    WAVE   SWELL
                       AIR SEA DIR/SP/G            HT/PER HT/PER/DIR
                 (UTC) (F)     (DEG/KT/KT) (MB)    (FT/S) (FT/S/D)
Buoy 41004       0650   69 67  120/ 19/ 25 1021.5F   7/ 7
Buoy 41008       0650   66 65  110/ 19/ 23 1017.5F   7/ 8   2/ 90/15
Folly Beach CMAN 0600   66     100/ 15/ 18 1022.3F
Capers Nearshore 0608   66 64  110/ 14/ 19 1022.1F
Fripp Nearshore  0608   66 64  110/ 16/ 23 1020.3F


STATION/POSITION TIME  TEMP    WIND        PRES    WAVE   SWELL
                       AIR SEA DIR/SP/G            HT/PER HT/PER/DIR
                 (UTC) (F)     (DEG/KT/KT) (MB)    (FT/S) (FT/S/D)
5E St. Marys GA  0700      66                N/A     8/ 8
Frying Pan Buoy  0650   67 70  100/ 21/ 27 1022.9F   5/ 6   2/230/15
Buoy 41025       0650   65 73  120/ 12/ 16 1027.2F   3/ 4   2/130/ 8
Cape Lookout NC  0600          110/ 10/ 11 1026.9F
Buoy 41002       0650   68 72  130/ 12/ 16 1024.1F   4/ 7   3/100/ 7
Buoy 41010       0650   74 75  100/ 23/ 27 1018.9F   8/ 8   2/290/14
St Augustine FL  0700   70 69  140/ 13/ 14 1016.9F


$$




USA.gov is the U.S. government's official web portal to all federal, state and local government web resources and services.